Location: Mat�lon
(46.2791°N, 7.1028°E)
Time: 17:33:20
(UTC+00:00)

MOS 1 Rocket - Pass Details

Date: 18 September 2020
Orbit: 614 x 831 km, 97.4° (Epoch: 30 October)

Event Time Altitude Azimuth Distance (km) Brightness Sun altitude
Rises 18:57:25 0° 10° (N) 3,032 6.7 -14.6°
Reaches altitude 10° 18:59:43 10° 9° (N) 2,084 5.9 -14.9°
Maximum altitude 19:04:12 72° 286° (WNW) 673 3.4 -15.7°
Drops below altitude 10° 19:08:30 10° 202° (SSW) 1,986 5.7 -16.4°
Sets 19:10:38 0° 200° (SSW) 2,876 6.5 -16.7°
